Regional Weather Roundup
Issued by NWS

Home | Current Version | Previous Version | Graphics & Text | Print | Product List | Glossary On
Versions: 1 2 3 4 5 6 7 8 9 10 11 12 13 14 15 16 17 18 19 20 21 22 23 24 25 26 27
000
ASUS45 KTFX 271110
RWRMT
MONTANA REGIONAL WEATHER ROUNDUP
NATIONAL WEATHER SERVICE GREAT FALLS MT
500 AM MDT TUE SEP 27 2016

NOTE: "FAIR" INDICATES FEW OR NO CLOUDS BELOW 12000 FEET WITH NO
SIGNIFICANT WEATHER AND/OR OBSTRUCTIONS TO VISIBILITY.

MTZ001>007-043-271200-
WEST OF THE DIVIDE

CITY           SKY/WX    TMP DP  RH WIND       PRES   REMARKS
KALISPELL      CLEAR     39  38  96 CALM      30.06F
MISSOULA       CLEAR     45  42  89 CALM      30.14S
BUTTE          CLEAR     37  34  89 CALM      30.24F
MULLAN PASS    CLEAR     57  38  48 S6        30.19S
ANACONDA         N/A     50  36  57 S9          N/A
DEER LODGE       N/A     43  36  75 CALM      30.20F
EUREKA           N/A     45  41  87 CALM      30.02F
HAMILTON         N/A     54  41  62 CALM      30.14R
LIBBY            N/A     43  41  93 CALM      30.04R
RONAN            N/A     42  38  86 CALM      30.10S
$$

MTZ008-052>055-271200-
SOUTHWEST MONTANA

CITY           SKY/WX    TMP DP  RH WIND       PRES   REMARKS
BOZEMAN        CLEAR     40  36  86 CALM      30.19S
DILLON           N/A     48  37  65 SW12      30.23S
W YELLOWSTONE    N/A     28  28 100 CALM      30.37S
ENNIS          CLEAR     50  36  57 SE7       30.28F
THREE FORKS      N/A     39  20  47 CALM      30.15S
TWIN BRIDGES     N/A     43  34  70 SE5       30.19S
$$

MTZ009-010-012-014-046-048-049-054-271200-
EAST SLOPES AND CENTRAL MONTANA

CITY           SKY/WX    TMP DP  RH WIND       PRES   REMARKS
CUT BANK       CLEAR     56  41  57 S5        30.01S
GREAT FALLS    CLEAR     59  40  49 S14       30.04S
MALMSTROM AFB  CLEAR     53  42  64 SW9       30.03F
HELENA         CLEAR     48  41  76 CALM      30.13S
AUGUSTA          N/A     52  38  59 N7        30.07S
BOWMANS CRNR     N/A     56  40  55 S15       30.07S
CHOTEAU          N/A     57  39  51 S7        30.05S
CONRAD           N/A     47  43  86 S5        30.03S
FAIRFIELD        N/A     57  40  53 SE2       30.04S
POWER            N/A     51  40  67 SW2       30.03F
RAYNESFORD       N/A     69  36  29 SW16G26   30.07R
$$

MTZ011-013-016-021-045-047-050-051-271200-
NORTH CENTRAL MONTANA

CITY           SKY/WX    TMP DP  RH WIND       PRES   REMARKS
HAVRE          CLEAR     50  44  80 SW10      29.96S
LEWISTOWN      CLEAR     48  39  71 E6        30.08S
N BAR RANCH      N/A     54  37  54 W8        30.12R
CHINOOK          N/A     39  39 100 CALM      29.96S
DENTON           N/A     51  41  69 S8        30.01S
GEYSER           N/A     52  38  59 N7        30.07S
GRASS RANGE      N/A     54  40  59 N5        30.03S
JUDITH GAP       N/A     50  38  62 S7        30.11F
ROY              N/A     56  42  59 MISG      30.02S
STANFORD         N/A     57  38  49 NW5       30.08S
WINIFRED         N/A     62  39  43 MISG      30.03S
$$

MTZ017>020-022>027-061-062-271200-
NORTHEAST MONTANA

CITY           SKY/WX    TMP DP  RH WIND       PRES   REMARKS
GLASGOW        CLEAR     46  42  86 E8        29.97S
JORDAN           N/A     42  39  89 W5        30.00S
SIDNEY         CLEAR     40  38  93 SW3       30.01F
WOLF POINT     CLEAR     42  40  92 E3        29.99F
POPLAR           N/A     39  37  93 CALM      30.00S
SCOBEY           N/A     36  29  76 CALM      29.97F
$$

MTZ028>42-056>058-271200-
SOUTHCENTRAL AND SOUTHEAST MONTANA

CITY           SKY/WX    TMP DP  RH WIND       PRES   REMARKS
BAKER          CLEAR     43  39  86 E3        30.06F
BILLINGS       CLEAR     61  43  51 SW22      30.08F
LIVINGSTON     CLEAR     51  38  60 W13       30.16S
MILES CITY     CLEAR     49  44  83 S10       30.03F
EKALAKA          N/A     50  41  71 CALM      30.05F
FORSYTH          N/A     50  46  87 CALM      30.03S
HARLOWTON        N/A     50  40  69 W9        30.12S
LAUREL           N/A     53  41  64 CALM      30.08F
ROUNDUP          N/A     50  42  73 S9        29.98F
$$

REGIONAL REPORTS...DAKOTAS

CITY           SKY/WX    TMP DP  RH WIND       PRES   REMARKS
WILLISTON      CLEAR     38  36  92 CALM      30.02S
MINOT          CLEAR     41  36  82 SW5       30.01S
DICKINSON      CLEAR     41  37  86 W5        30.02S
CROSBY           N/A     41  41 100 S5        30.03S
WATFORD CITY     N/A     37  37 100 CALM      30.02F
BISMARCK       CLEAR     41  37  86 CALM      30.03S
GRAND FORKS    CLEAR     40  36  86 W9        29.90F
FARGO          CLEAR     40  35  83 W8        29.92F
BUFFALO SD       N/A     49  43  80 CALM      30.01F
RAPID CITY     CLEAR     40  36  86 NW3       30.10F
$$

REGIONAL REPORTS...WYOMING/IDAHO/WASHINGTON

CITY           SKY/WX    TMP DP  RH WIND       PRES   REMARKS
GILLETTE       CLEAR     55  43  63 SW13      30.13F
SHERIDAN       CLEAR     44  37  76 CALM      30.11F
BUFFALO WY     CLEAR     54  30  40 W7        30.17F
CODY           CLEAR     46  43  87 CALM      30.21F
YELLOWSTONE LA   N/A     30  30 100 CALM      30.43S
IDAHO FALLS    CLOUDY    42  39  89 N5        30.25S
SALMON         CLEAR     39  37  93 CALM      30.23S
BOISE          CLEAR     59  42  53 SE7       30.11R
SPOKANE        CLEAR     59  44  57 SE6       30.01S
$$

REGIONAL REPORTS...ALBERTA

CITY           SKY/WX    TMP DP  RH WIND       PRES   REMARKS
EDMONTON       PTCLDY    50  39  66 W3        29.74R
CALGARY        PTCLDY    52  39  62 S6        29.85F
LETHBRIDGE     CLEAR     50  41  71 S16       29.92S
MEDICINE HAT   CLEAR     48  43  81 VRB2      29.85F
WATERTON GATE    N/A     64  41  42 SW12G20     N/A
MILK RIVER       N/A     45  39  81 N3          N/A
ONEFOUR          N/A     46  43  87 E14         N/A
$$

REGIONAL REPORTS...SASKATCHEWAN

CITY           SKY/WX    TMP DP  RH WIND       PRES   REMARKS
SWIFT CURRENT  CLEAR     48  43  81 S13       29.89F
REGINA         CLEAR     41  36  81 E10       29.97F
SASKATOON      CLEAR     45  39  81 SE7       29.90F
CYPRESS HILLS    N/A     50  37  62 SW6         N/A
VAL MARIE        N/A     36  34  93 E1          N/A
ROCKGLEN         N/A     46  41  81 S9          N/A
ASSINIBOIA       N/A     45  43  93 S6          N/A
$$




USA.gov is the U.S. government's official web portal to all federal, state and local government web resources and services.